[[{"header":{"parameterUnit":"m.s-1","parameterCategory":2,"la1":30.2991,"la2":30.254,"lo1":-89.0895,"lo2":-89.0444,"dy":0.0017,"dx":0.0017,"nx":28,"ny":28,"refTime":"2023-04-26T15:00:00:Z","depth":"0","parameterNumber":2,"parameterNumberName":"U-component_of_CURRENTS"},"data":[0,0,0,0,0,0,0,0,0,0,0,0,0,0,0,0,0,0,0,0,0,0,0,0,0,0,0,0,0,0,0,0,0,0,0,0,0,0,0,0,0,0,0,0,0,0,0,0,0,0,0,0,0,0,0,0,0,0,0.2107,0.2109,0,0.2258,0.226,0.2261,0.2253,0.2251,0.2249,0.2248,0.2502,0.251,0.2518,0,0,0,0,0,0,0,0,0,0,0,0,0,0.1893,0.1896,0.2106,0.2109,0.2111,0.2258,0.226,0.2262,0.2253,0.2251,0.2249,0.2247,0.2499,0.2509,0.2519,0,0,0,0,0,0,0,0,0,0,0,0,0,0.2005,0.1897,0.2106,0.2128,0.2132,0.2258,0.226,0.2262,0.2254,0.2251,0.2248,0.2246,0.2495,0.2508,0.252,0.2651,0,0,0.2559,0.2564,0,0,0,0,0,0,0,0,0.1998,0.2012,0.2123,0.2127,0.2131,0.2238,0.2278,0.2399,0.2254,0.2203,0.2248,0.2245,0.2428,0.2446,0.2472,0.2663,0.2674,0.256,0.2567,0.2573,0.2576,0,0,0,0,0,0,0,0.199,0.2006,0.2162,0.2125,0.2131,0.216,0.2171,0.23,0.2327,0.2207,0.2208,0.2233,0.243,0.246,0.2479,0.2678,0.2559,0.2571,0.2578,0.2583,0.3002,0.3005,0,0,0,0,0,0,0.198,0.1999,0.2157,0.2167,0.2062,0.2165,0.2178,0.2203,0.2323,0.2339,0.2235,0.2232,0.244,0.2464,0.2488,0.2689,0.2573,0.2585,0.2592,0.2998,0.3003,0.3007,0,0,0,0,0,0,0.1975,0.1993,0.2151,0.2089,0.2112,0.2172,0.22,0.2207,0.2233,0.2344,0.2361,0.2252,0.2439,0.247,0.2603,0.2697,0.259,0.2602,0.2994,0.3,0.3005,0.3067,0,0,0,0,0,0,0.1968,0.199,0.2011,0.2089,0.2115,0.2242,0.2203,0.2212,0.2255,0.2252,0.2366,0.2386,0.2439,0.2584,0.2615,0.2712,0.2612,0.299,0.2997,0.3003,0.306,0.3074,0.3085,0,0,0,0,0,0.196,0.2015,0.201,0.203,0.2139,0.2245,0.2262,0.2291,0.2258,0.2297,0.2356,0.2382,0.2648,0.2597,0.2634,0.2736,0.2987,0.2995,0.3003,0.3055,0.3071,0.3085,0,0,0,0,0,0,0.1945,0.2022,0.2018,0.2094,0.2164,0.2245,0.2295,0.2299,0.2374,0.2371,0.2435,0.2464,0.262,0.2667,0.2608,0.2874,0.2822,0.2838,0.285,0.2866,0.2878,0.2864,0.2622,0,0,0,0,0,0.1949,0.2002,0.2076,0.214,0.2175,0.2228,0.2272,0.2294,0.2369,0.2395,0.247,0.2564,0.2689,0.2758,0.287,0.3023,0.3042,0.311,0.3122,0.3132,0.3146,0.3244,0.3266,0.3033,0.3033,0.3033,0,0,0.1968,0.2014,0.2048,0.214,0.2192,0.228,0.2248,0.2332,0.2407,0.2422,0.2548,0.2621,0.2737,0.29,0.2975,0.2948,0.3207,0.3142,0.315,0.3159,0.3255,0.3277,0.3297,0.3038,0.3037,0.3036,0,0,0.2054,0.2066,0.2147,0.2205,0.2292,0.2328,0.2349,0.2435,0.2471,0.2605,0.2633,0.2747,0.2931,0.3027,0.3101,0.3256,0.3269,0.3294,0.3357,0.3453,0.3472,0.3489,0.3521,0.3541,0.3299,0.33,0.33,0,0.2075,0.2176,0.2192,0.2283,0.2343,0.2348,0.2451,0.2508,0.2623,0.2669,0.2658,0.2905,0.3003,0.3193,0.3246,0.329,0.3309,0.3287,0.3467,0.3484,0.3501,0.353,0.355,0.3304,0.3303,0.3303,0.3302,0,0.2225,0.23,0.2357,0.2459,0.2518,0.2614,0.2676,0.2728,0.2757,0.2814,0.298,0.3093,0.3225,0.3292,0.3331,0.3509,0.3471,0.3467,0.3418,0.3528,0.3551,0.3572,0.3309,0.3308,0.3307,0.3306,0,0,0.2306,0.2437,0.2457,0.2497,0.2616,0.266,0.2784,0.2892,0.2929,0.3053,0.3144,0.3369,0.3373,0.3456,0.3512,0.3605,0.3746,0.3587,0.359,0.3599,0.391,0.3901,0.3921,0.3762,0.3767,0.3771,0.3869,0,0.2429,0.2582,0.2637,0.2767,0.2843,0.2869,0.2962,0.3038,0.3099,0.3177,0.3297,0.3411,0.3454,0.35,0.3617,0.3718,0.3807,0.3717,0.382,0.3823,0.3787,0.3949,0.3858,0.3942,0.3889,0.3893,0.3895,0,0.2584,0.2645,0.2792,0.2865,0.2898,0.296,0.3027,0.3116,0.3224,0.3273,0.3393,0.3453,0.3639,0.3624,0.3868,0.3801,0.3872,0.3931,0.3936,0.3923,0.3855,0.3833,0.3981,0.3878,0.3926,0.3924,0.3921,0,0.2606,0.2757,0.2845,0.2885,0.2977,0.3012,0.3048,0.3138,0.3188,0.3309,0.3347,0.3546,0.3628,0.3787,0.3937,0.3906,0.4155,0.4121,0.4173,0.4168,0.4114,0.4099,0.4164,0.4285,0.4285,0.4285,0.4284,0,0.273,0.2791,0.2834,0.2873,0.2912,0.2986,0.3036,0.3087,0.3182,0.3244,0.3374,0.3455,0.3674,0.383,0.396,0.4148,0.4186,0.4225,0.4229,0.4131,0.4117,0.4041,0.3961,0.4288,0.4287,0.4287,0.4286,0,0.276,0.2823,0.2875,0.2923,0.2928,0.2931,0.298,0.3013,0.3107,0.3189,0.3229,0.3413,0.3626,0.3825,0.407,0.4163,0.4239,0.4378,0.4222,0.4208,0.4156,0.4083,0.4005,0.3903,0.4463,0.4464,0.4464,0,0.2795,0.2833,0.284,0.2832,0.2848,0.2861,0.2876,0.2958,0.3001,0.3163,0.3203,0.341,0.3556,0.3905,0.4125,0.4358,0.424,0.4381,0.434,0.4187,0.4108,0.3909,0.3813,0.427,0.4269,0.4269,0.4268,0,0.2802,0.2789,0.2794,0.2766,0.2758,0.2759,0.279,0.281,0.2928,0.3007,0.3128,0.3249,0.359,0.3806,0.4117,0.4263,0.418,0.4373,0.428,0.4042,0.3766,0.3655,0.4116,0.4262,0.4262,0.4263,0.4263,0.4263,0.2741,0.2711,0.2689,0.2655,0.2646,0.263,0.2607,0.268,0.2722,0.2825,0.3005,0.3164,0.3521,0.3954,0.4073,0.4219,0.4125,0.4182,0.4125,0.3952,0.3803,0.4233,0.4345,0.4346,0.4347,0.4348,0.4348,0,0.2618,0.26,0.2581,0.2509,0.246,0.2501,0.2519,0.2497,0.2515,0.2702,0.2812,0.3171,0.3417,0.3718,0.4018,0.3988,0.3835,0.391,0.3612,0.3549,0.4018,0.3962,0.3917,0.3917,0.3917,0.3917,0.3917,0.3917,0.2544,0.2465,0.2451,0.2319,0.2289,0.2194,0.2184,0.2199,0.2299,0.2454,0.2649,0.2869,0.3289,0.3658,0.3772,0.374,0.3474,0.3348,0.3293,0.3634,0.3653,0.3672,0.3604,0.3484,0.3484,0.2721,0.2715,0.271]},{"header":{"parameterUnit":"m.s-1","parameterCategory":2,"la1":30.2991,"la2":30.254,"lo1":-89.0895,"lo2":-89.0444,"dy":0.0017,"dx":0.0017,"nx":28,"ny":28,"refTime":"2023-04-26T15:00:00:Z","depth":"0","parameterNumber":3,"parameterNumberName":"V-component_of_CURRENTS"},"data":[0,0,0,0,0,0,0,0,0,0,0,0,0,0,0,0,0,0,0,0,0,0,0,0,0,0,0,0,0,0,0,0,0,0,0,0,0,0,0,0,0,0,0,0,0,0,0,0,0,0,0,0,0,0,0,0,0,0,0.0452,0.0454,0,0.056,0.0561,0.0561,0.0538,0.0538,0.0537,0.0536,0.0755,0.0761,0.0768,0,0,0,0,0,0,0,0,0,0,0,0,0,0.0114,0.012,0.0451,0.0454,0.0456,0.056,0.0561,0.0561,0.0539,0.0538,0.0536,0.0535,0.0753,0.076,0.0768,0,0,0,0,0,0,0,0,0,0,0,0,0,0.0235,0.0122,0.0451,0.0467,0.047,0.056,0.0561,0.0561,0.0539,0.0538,0.0536,0.0535,0.075,0.076,0.0769,0.0858,0,0,0.08,0.0804,0,0,0,0,0,0,0,0,0.0228,0.0245,0.0462,0.0466,0.047,0.0545,0.0523,0.067,0.0539,0.05,0.0536,0.0534,0.0704,0.0717,0.0722,0.0868,0.0878,0.0801,0.0807,0.0811,0.0814,0,0,0,0,0,0,0,0.022,0.024,0.0482,0.0465,0.047,0.0432,0.0447,0.0548,0.0601,0.0503,0.0505,0.0537,0.0705,0.0712,0.0728,0.0881,0.0801,0.0809,0.0816,0.082,0.1118,0.1119,0,0,0,0,0,0,0.0239,0.0234,0.0479,0.0487,0.0357,0.044,0.0456,0.0512,0.0597,0.0612,0.0538,0.0536,0.0696,0.0716,0.0736,0.0876,0.0811,0.0821,0.0826,0.1116,0.1118,0.112,0,0,0,0,0,0,0.0232,0.0261,0.0475,0.0369,0.0396,0.0449,0.0511,0.0516,0.0519,0.0625,0.0638,0.0537,0.0696,0.0722,0.0856,0.0884,0.0825,0.0834,0.1113,0.1116,0.1119,0.114,0,0,0,0,0,0,0.0222,0.0258,0.03,0.0373,0.0403,0.0532,0.0514,0.0519,0.0547,0.0544,0.063,0.0648,0.0696,0.0841,0.0866,0.0896,0.0842,0.1111,0.1115,0.1118,0.1137,0.1143,0.1149,0,0,0,0,0,0.021,0.0297,0.0302,0.0332,0.0462,0.0535,0.0545,0.0568,0.0548,0.056,0.0639,0.0645,0.0879,0.0853,0.0881,0.0915,0.1109,0.1114,0.1118,0.1134,0.1142,0.1148,0,0,0,0,0,0,0.0184,0.0307,0.0313,0.0434,0.0475,0.0535,0.0575,0.0569,0.0631,0.0648,0.0702,0.073,0.0849,0.0887,0.0855,0.1008,0.0983,0.0993,0.0986,0.0994,0.1,0.1022,0.085,0,0,0,0,0,0.0198,0.0292,0.0367,0.046,0.0486,0.0518,0.0549,0.0566,0.0637,0.0657,0.0716,0.0796,0.089,0.0945,0.1031,0.114,0.1124,0.1168,0.1174,0.1179,0.1216,0.1193,0.12,0.1134,0.1134,0.1134,0,0,0.0224,0.0298,0.0355,0.0459,0.0495,0.057,0.053,0.06,0.0667,0.0685,0.0795,0.0834,0.0925,0.1038,0.1091,0.1075,0.1185,0.1184,0.1188,0.1223,0.1198,0.1204,0.121,0.1137,0.1137,0.1136,0,0,0.0316,0.0374,0.0471,0.0511,0.0587,0.0617,0.0633,0.0691,0.0715,0.0828,0.0851,0.0913,0.1051,0.111,0.1163,0.126,0.1219,0.1262,0.1317,0.1294,0.1299,0.1303,0.1263,0.1263,0.1261,0.1261,0.1261,0,0.0332,0.0473,0.0501,0.0586,0.0647,0.0639,0.0734,0.0771,0.0861,0.0913,0.0876,0.1047,0.1093,0.1239,0.1252,0.1275,0.124,0.1279,0.1298,0.1302,0.1306,0.1265,0.1265,0.1262,0.1262,0.1262,0.1262,0,0.0501,0.0586,0.0645,0.0759,0.0809,0.0896,0.0949,0.0999,0.1015,0.1048,0.1162,0.1201,0.1293,0.1291,0.1311,0.137,0.1328,0.1303,0.1271,0.1313,0.1267,0.1267,0.1264,0.1264,0.1263,0.1263,0,0,0.0613,0.0741,0.0759,0.0813,0.0912,0.0972,0.1091,0.1199,0.1271,0.1306,0.1392,0.1485,0.1444,0.1499,0.1487,0.1457,0.1419,0.1385,0.1383,0.1331,0.1343,0.1257,0.1248,0.1373,0.1374,0.1375,0.1288,0,0.0733,0.0901,0.0948,0.1094,0.1178,0.121,0.1304,0.1389,0.1439,0.1509,0.1525,0.1594,0.1542,0.1547,0.1523,0.1457,0.1424,0.1444,0.1327,0.1324,0.1229,0.1248,0.1207,0.1123,0.1288,0.1288,0.1288,0,0.0896,0.098,0.1139,0.1244,0.1284,0.1364,0.1505,0.1585,0.1679,0.1708,0.1764,0.175,0.1765,0.1666,0.1591,0.1595,0.1488,0.1407,0.1401,0.1326,0.1239,0.1117,0.1116,0.0891,0.1287,0.1287,0.1287,0,0.0963,0.1118,0.1242,0.1287,0.1405,0.1482,0.1544,0.1651,0.1715,0.1811,0.1835,0.1871,0.1844,0.175,0.1597,0.1579,0.1464,0.1419,0.1254,0.1245,0.1198,0.1184,0.0963,0.1358,0.1359,0.1359,0.1359,0,0.109,0.1181,0.1274,0.1339,0.1469,0.1525,0.1656,0.173,0.1809,0.1882,0.1907,0.1945,0.1849,0.1776,0.1637,0.1447,0.1497,0.1281,0.1227,0.1201,0.1189,0.0982,0.0887,0.1356,0.1356,0.1357,0.1357,0,0.1137,0.1213,0.1335,0.1455,0.1499,0.1579,0.169,0.1771,0.1833,0.1922,0.1939,0.1977,0.1902,0.1793,0.1631,0.1476,0.1175,0.1234,0.1204,0.1148,0.0774,0.0684,0.0495,0.0349,0.1042,0.1039,0.1037,0,0.1179,0.1245,0.1379,0.1442,0.1498,0.161,0.1684,0.178,0.1856,0.1939,0.1977,0.1953,0.197,0.1723,0.1488,0.1263,0.1087,0.1016,0.0988,0.0755,0.0615,0.0583,0.0472,0.0921,0.0918,0.0916,0.0914,0,0.1217,0.1252,0.1333,0.1454,0.1552,0.1656,0.1764,0.1822,0.192,0.1987,0.2048,0.2063,0.1885,0.1677,0.1371,0.1185,0.0836,0.0957,0.0733,0.0525,0.0464,0.0297,0.0961,0.0893,0.0895,0.0897,0.0898,0.0899,0.1213,0.1261,0.135,0.1465,0.1573,0.1678,0.1749,0.1851,0.1949,0.2054,0.2085,0.2134,0.1842,0.1454,0.1168,0.0607,0.0664,0.0423,0.0338,0.0333,0.0175,0.0781,0.0638,0.0639,0.0639,0.064,0.064,0,0.1201,0.1265,0.1356,0.1494,0.1582,0.1652,0.1784,0.1845,0.1945,0.2088,0.2159,0.2069,0.1622,0.1201,0.0501,0.0076,-0.0055,-0.0159,-0.0215,-0.0298,0.0249,0.0223,-0.0038,-0.0037,-0.0037,-0.0037,-0.0037,-0.0036,0.1205,0.1279,0.1326,0.1461,0.155,0.1651,0.1716,0.1821,0.1939,0.2089,0.2178,0.2279,0.1985,0.0684,-0.0248,-0.0472,-0.0761,-0.0791,-0.0957,-0.059,-0.0541,-0.0495,-0.0546,-0.0962,-0.0964,-0.1468,-0.1473,-0.1477]}],[{"header":{"parameterUnit":"m.s-1","parameterCategory":2,"la1":30.2991,"la2":30.254,"lo1":-89.0895,"lo2":-89.0444,"dy":0.0017,"dx":0.0017,"nx":28,"ny":28,"refTime":"2023-04-26T15:00:00:Z","depth":"2","parameterNumber":2,"parameterNumberName":"U-component_of_CURRENTS"},"data":[0,0,0,0,0,0,0,0,0,0,0,0,0,0,0,0,0,0,0,0,0,0,0,0,0,0,0,0,0,0,0,0,0,0,0,0,0,0,0,0,0,0,0,0,0,0,0,0,0,0,0,0,0,0,0,0,0,0,0.2247,0.2247,0,0.2275,0.2275,0.2275,0.2309,0.2309,0.231,0.2311,0.2276,0.2274,0.2273,0,0,0,0,0,0,0,0,0,0,0,0,0,0.2046,0.2051,0.2247,0.2247,0.2248,0.2275,0.2275,0.2275,0.2308,0.2309,0.231,0.2311,0.2276,0.2274,0.2272,0,0,0,0,0,0,0,0,0,0,0,0,0,0.2108,0.2052,0.2247,0.227,0.2272,0.2274,0.2275,0.2275,0.2308,0.2309,0.231,0.2312,0.2277,0.2275,0.2272,0.2235,0,0,0.2265,0.2264,0,0,0,0,0,0,0,0,0.2104,0.2115,0.2266,0.2268,0.2271,0.2291,0.2191,0.2259,0.2308,0.2292,0.2311,0.2312,0.2276,0.2274,0.2274,0.2233,0.2232,0.2264,0.2263,0.2262,0.2261,0,0,0,0,0,0,0,0.21,0.2113,0.2255,0.2266,0.2269,0.2218,0.2229,0.2203,0.2274,0.2293,0.2297,0.2303,0.2277,0.2276,0.2273,0.2231,0.2265,0.2262,0.2261,0.226,0.2297,0.2299,0,0,0,0,0,0,0.2111,0.211,0.2254,0.2256,0.2191,0.2222,0.2234,0.2282,0.2276,0.2278,0.2302,0.2305,0.228,0.2276,0.2272,0.2387,0.2262,0.226,0.2258,0.2295,0.2297,0.23,0,0,0,0,0,0,0.2107,0.2125,0.2253,0.2182,0.2196,0.2226,0.2277,0.2282,0.2312,0.2284,0.2284,0.2332,0.228,0.2275,0.2309,0.2379,0.2259,0.2256,0.2292,0.2295,0.2299,0.2513,0,0,0,0,0,0,0.2102,0.2124,0.2154,0.2185,0.22,0.23,0.2277,0.2282,0.2313,0.2318,0.2308,0.2305,0.2281,0.2313,0.2307,0.2374,0.2254,0.2289,0.2293,0.2298,0.2503,0.2523,0.2541,0,0,0,0,0,0.2095,0.2154,0.2156,0.2172,0.2245,0.2302,0.2307,0.2326,0.2314,0.2351,0.2353,0.2307,0.2337,0.2314,0.2305,0.2373,0.2286,0.2292,0.2297,0.2494,0.2519,0.2541,0,0,0,0,0,0,0.2089,0.2164,0.2167,0.2247,0.2285,0.231,0.2349,0.2341,0.2367,0.2376,0.2337,0.2336,0.2389,0.2343,0.2317,0.2394,0.2303,0.2307,0.2456,0.2479,0.2497,0.2482,0.2252,0,0,0,0,0,0.2098,0.2163,0.2212,0.2274,0.2308,0.2324,0.2344,0.2358,0.2384,0.2398,0.2403,0.2396,0.2397,0.241,0.2402,0.244,0.2359,0.2475,0.2495,0.2512,0.2493,0.2414,0.2424,0.2318,0.2318,0.2318,0,0,0.2113,0.2158,0.2196,0.2275,0.2311,0.2362,0.2343,0.2405,0.2433,0.2385,0.2455,0.2461,0.2419,0.2482,0.25,0.246,0.2515,0.2519,0.2534,0.2504,0.242,0.243,0.2439,0.2322,0.2321,0.2321,0,0,0.2177,0.2227,0.2302,0.2341,0.2403,0.2409,0.2435,0.2493,0.2519,0.2571,0.2553,0.2607,0.2607,0.2621,0.261,0.2716,0.2612,0.272,0.2817,0.2744,0.2751,0.2756,0.2735,0.2736,0.2739,0.274,0.274,0,0.2189,0.2284,0.2328,0.24,0.2441,0.2438,0.2514,0.2524,0.2582,0.2592,0.2621,0.2642,0.2666,0.2684,0.278,0.2762,0.2706,0.2743,0.2769,0.2771,0.2773,0.2748,0.2746,0.2751,0.2749,0.2748,0.2747,0,0.2319,0.2368,0.2425,0.2509,0.2558,0.2625,0.2654,0.2692,0.2715,0.2708,0.2759,0.28,0.2809,0.2855,0.2876,0.2913,0.287,0.2798,0.2711,0.2796,0.2766,0.2761,0.2766,0.2762,0.2759,0.2756,0,0,0.2421,0.2497,0.2512,0.2535,0.2624,0.2666,0.2726,0.276,0.2769,0.2818,0.2835,0.2933,0.2944,0.2936,0.2964,0.2961,0.3026,0.293,0.2921,0.2912,0.2894,0.2969,0.2969,0.2948,0.2947,0.2946,0.2894,0,0.2508,0.2594,0.2647,0.2722,0.2769,0.2797,0.2849,0.2864,0.2882,0.2893,0.2886,0.2932,0.2964,0.3036,0.3024,0.3007,0.3008,0.3048,0.2807,0.28,0.2857,0.2963,0.2701,0.2639,0.2887,0.2886,0.2886,0,0.2626,0.2656,0.2734,0.2785,0.2826,0.2875,0.2934,0.2974,0.2955,0.2993,0.2987,0.2975,0.302,0.3031,0.2976,0.2996,0.2982,0.2952,0.2946,0.292,0.2863,0.2578,0.2618,0.2875,0.2875,0.2876,0.2877,0,0.2619,0.2717,0.2754,0.2783,0.2854,0.291,0.2956,0.2989,0.3011,0.3046,0.3075,0.304,0.3075,0.299,0.3005,0.299,0.2904,0.2844,0.287,0.2875,0.2554,0.2535,0.2779,0.2779,0.2779,0.2779,0.278,0,0.2651,0.2698,0.2743,0.2757,0.284,0.2909,0.2976,0.3037,0.3065,0.3066,0.3119,0.3113,0.3072,0.3021,0.2979,0.2933,0.2869,0.2905,0.2866,0.2636,0.2625,0.2722,0.2716,0.2777,0.2778,0.2778,0.2779,0,0.2623,0.2647,0.2702,0.2781,0.2822,0.2877,0.2985,0.3001,0.309,0.3093,0.3125,0.3156,0.3144,0.3088,0.2996,0.2947,0.2872,0.2868,0.2659,0.26,0.2894,0.2899,0.2866,0.2868,0.287,0.2872,0.2873,0,0.2596,0.2603,0.2697,0.2725,0.2771,0.285,0.2897,0.3002,0.3007,0.3087,0.3062,0.312,0.3103,0.3034,0.2941,0.2862,0.2918,0.2655,0.2602,0.2938,0.2901,0.2904,0.2907,0.2262,0.2258,0.2255,0.2252,0,0.254,0.2582,0.2616,0.2674,0.2731,0.2786,0.285,0.2854,0.2941,0.2979,0.2987,0.2995,0.2973,0.2794,0.2799,0.2702,0.2651,0.26,0.2908,0.2341,0.2379,0.2342,0.2361,0.2225,0.2227,0.2229,0.2231,0.2232,0.2504,0.2523,0.255,0.2626,0.2678,0.27,0.2717,0.2737,0.2751,0.2707,0.276,0.2677,0.2638,0.2489,0.2411,0.2387,0.2549,0.2432,0.2434,0.2441,0.244,0.2486,0.2352,0.2356,0.2358,0.2361,0.2363,0,0.2429,0.2469,0.2497,0.2553,0.2564,0.2655,0.2665,0.261,0.2585,0.2488,0.2441,0.2116,0.2043,0.206,0.1973,0.2026,0.191,0.1978,0.178,0.1811,0.1837,0.1799,0.1543,0.1541,0.1539,0.1537,0,0,0.238,0.2379,0.2405,0.2411,0.248,0.2481,0.2491,0.2402,0.2306,0.2023,0.1879,0.1844,0.1963,0.1671,0.1671,0.1621,0.1693,0.1559,0.221,0.2003,0.2026,0.2093,0.2072,0,0,0,0,0]},{"header":{"parameterUnit":"m.s-1","parameterCategory":2,"la1":30.2991,"la2":30.254,"lo1":-89.0895,"lo2":-89.0444,"dy":0.0017,"dx":0.0017,"nx":28,"ny":28,"refTime":"2023-04-26T15:00:00:Z","depth":"2","parameterNumber":3,"parameterNumberName":"V-component_of_CURRENTS"},"data":[0,0,0,0,0,0,0,0,0,0,0,0,0,0,0,0,0,0,0,0,0,0,0,0,0,0,0,0,0,0,0,0,0,0,0,0,0,0,0,0,0,0,0,0,0,0,0,0,0,0,0,0,0,0,0,0,0,0,-0.0566,-0.0569,0,-0.0797,-0.0799,-0.0801,-0.0762,-0.0758,-0.0755,-0.0752,-0.0895,-0.0901,-0.0908,0,0,0,0,0,0,0,0,0,0,0,0,0,-0.032,-0.0322,-0.0566,-0.0569,-0.0573,-0.0797,-0.0799,-0.0802,-0.0762,-0.0758,-0.0754,-0.075,-0.0892,-0.09,-0.0909,0,0,0,0,0,0,0,0,0,0,0,0,0,-0.0469,-0.0323,-0.0565,-0.0585,-0.059,-0.0796,-0.0799,-0.0803,-0.0763,-0.0758,-0.0753,-0.0748,-0.0889,-0.09,-0.091,-0.1076,0,0,-0.0942,-0.0946,0,0,0,0,0,0,0,0,-0.046,-0.0477,-0.0579,-0.0585,-0.059,-0.0752,-0.0766,-0.0892,-0.0764,-0.069,-0.0752,-0.0746,-0.0847,-0.0861,-0.0907,-0.1083,-0.1089,-0.0943,-0.0949,-0.0954,-0.0956,0,0,0,0,0,0,0,-0.045,-0.0468,-0.065,-0.0583,-0.059,-0.0663,-0.0675,-0.079,-0.0787,-0.0696,-0.0695,-0.0734,-0.0848,-0.0897,-0.0909,-0.1091,-0.0942,-0.0952,-0.0958,-0.0962,-0.1237,-0.1238,0,0,0,0,0,0,-0.043,-0.0458,-0.0643,-0.0658,-0.052,-0.0671,-0.0685,-0.0699,-0.0788,-0.0799,-0.0739,-0.0732,-0.0881,-0.0897,-0.0914,-0.087,-0.0953,-0.0963,-0.0969,-0.1236,-0.1238,-0.1239,0,0,0,0,0,0,-0.0423,-0.0443,-0.0634,-0.057,-0.06,-0.0679,-0.0697,-0.0707,-0.0708,-0.0822,-0.0829,-0.0724,-0.0878,-0.09,-0.0954,-0.0884,-0.0968,-0.0977,-0.1235,-0.1237,-0.1238,-0.094,0,0,0,0,0,0,-0.0415,-0.0439,-0.0425,-0.0568,-0.0603,-0.0717,-0.0703,-0.0715,-0.0746,-0.0738,-0.0815,-0.0825,-0.0876,-0.0938,-0.0965,-0.09,-0.0986,-0.1234,-0.1236,-0.1238,-0.0948,-0.0931,-0.0916,0,0,0,0,0,-0.0405,-0.0407,-0.0422,-0.0445,-0.0586,-0.0718,-0.0741,-0.0778,-0.075,-0.0756,-0.0786,-0.082,-0.0969,-0.0948,-0.0979,-0.0914,-0.1233,-0.1235,-0.1238,-0.0956,-0.0934,-0.0917,0,0,0,0,0,0,-0.0295,-0.041,-0.0427,-0.0461,-0.0565,-0.0712,-0.0739,-0.0766,-0.0804,-0.0773,-0.0845,-0.0861,-0.0877,-0.098,-0.0954,-0.1013,-0.1106,-0.1114,-0.0881,-0.0863,-0.0847,-0.0862,-0.0994,0,0,0,0,0,-0.0271,-0.0281,-0.0429,-0.0447,-0.0508,-0.0617,-0.0668,-0.0695,-0.0768,-0.0776,-0.0786,-0.0849,-0.0934,-0.0954,-0.1037,-0.1089,-0.1207,-0.1076,-0.106,-0.1044,-0.1087,-0.1245,-0.1244,-0.1247,-0.1247,-0.1247,0,0,-0.023,-0.0297,-0.0299,-0.0423,-0.051,-0.0584,-0.063,-0.07,-0.0712,-0.0795,-0.0747,-0.0792,-0.0943,-0.0958,-0.0977,-0.1015,-0.1084,-0.1047,-0.1031,-0.1085,-0.1247,-0.1246,-0.1246,-0.1248,-0.1248,-0.1248,0,0,-0.02,-0.0227,-0.0254,-0.0328,-0.0452,-0.0532,-0.0541,-0.0632,-0.0621,-0.0639,-0.068,-0.0687,-0.0785,-0.0844,-0.0915,-0.0896,-0.0999,-0.0904,-0.0818,-0.0964,-0.0965,-0.0967,-0.0997,-0.1005,-0.0886,-0.0885,-0.0885,0,-0.0145,-0.0207,-0.0284,-0.0342,-0.0396,-0.0496,-0.0551,-0.0589,-0.064,-0.0656,-0.058,-0.0703,-0.0745,-0.0861,-0.079,-0.0849,-0.0928,-0.0846,-0.0936,-0.0942,-0.0949,-0.0982,-0.0994,-0.0871,-0.0873,-0.0874,-0.0876,0,-0.018,-0.0201,-0.0233,-0.032,-0.0375,-0.0442,-0.0525,-0.0527,-0.0499,-0.0527,-0.0551,-0.0584,-0.0678,-0.0644,-0.0689,-0.0761,-0.0789,-0.0887,-0.0958,-0.0929,-0.0966,-0.0983,-0.0851,-0.0856,-0.086,-0.0864,0,0,-0.0129,-0.0237,-0.0238,-0.0262,-0.0367,-0.0423,-0.0455,-0.0558,-0.0584,-0.053,-0.0562,-0.0574,-0.0565,-0.0651,-0.068,-0.0732,-0.0729,-0.0785,-0.0799,-0.0766,-0.0973,-0.0834,-0.0841,-0.0835,-0.084,-0.0843,-0.0931,0,-0.0146,-0.0261,-0.0271,-0.0304,-0.0395,-0.0433,-0.0448,-0.0509,-0.0543,-0.0566,-0.0609,-0.0627,-0.059,-0.0573,-0.0633,-0.0751,-0.0785,-0.0692,-0.1057,-0.1066,-0.0909,-0.0863,-0.079,-0.0854,-0.095,-0.0953,-0.0955,0,-0.0217,-0.0274,-0.0368,-0.0353,-0.0378,-0.0358,-0.0444,-0.0446,-0.0551,-0.0552,-0.0612,-0.0664,-0.0717,-0.0678,-0.0864,-0.0806,-0.0867,-0.0921,-0.093,-0.0945,-0.0966,-0.0934,-0.0885,-0.0987,-0.0985,-0.0982,-0.098,0,-0.0297,-0.0316,-0.0393,-0.0403,-0.043,-0.04,-0.0362,-0.0447,-0.0445,-0.0539,-0.0543,-0.0695,-0.0704,-0.0867,-0.0918,-0.0921,-0.111,-0.1172,-0.1107,-0.1095,-0.1187,-0.1175,-0.133,-0.133,-0.133,-0.1329,-0.1329,0,-0.0392,-0.042,-0.0407,-0.0448,-0.0418,-0.0381,-0.0366,-0.0369,-0.0384,-0.039,-0.0493,-0.0545,-0.0751,-0.0877,-0.0969,-0.1051,-0.1177,-0.1092,-0.1132,-0.1064,-0.1042,-0.1328,-0.1326,-0.1333,-0.1332,-0.1331,-0.1331,0,-0.0515,-0.0556,-0.0572,-0.0516,-0.0487,-0.0429,-0.029,-0.0295,-0.0269,-0.0295,-0.0297,-0.0446,-0.058,-0.0751,-0.0995,-0.1061,-0.1194,-0.1192,-0.1011,-0.1026,-0.1066,-0.1049,-0.1182,-0.1178,-0.1175,-0.1172,-0.117,0,-0.0628,-0.0679,-0.06,-0.0557,-0.0501,-0.0412,-0.0378,-0.0281,-0.0273,-0.0237,-0.0258,-0.0355,-0.0424,-0.0662,-0.0831,-0.098,-0.1081,-0.1018,-0.1024,-0.1036,-0.1063,-0.105,-0.1038,-0.0993,-0.099,-0.0987,-0.0985,0,-0.0741,-0.0693,-0.0661,-0.0603,-0.0519,-0.0446,-0.034,-0.0315,-0.0217,-0.0182,-0.0149,-0.0156,-0.0318,-0.0453,-0.0608,-0.0733,-0.0994,-0.0959,-0.1126,-0.1003,-0.0857,-0.0882,-0.0878,-0.096,-0.0962,-0.0964,-0.0965,-0.0966,-0.0747,-0.0712,-0.0651,-0.0562,-0.0489,-0.0413,-0.0337,-0.0245,-0.0149,0.0058,0.0003,0.0129,-0.0098,-0.0196,-0.0433,-0.0692,-0.0733,-0.0847,-0.0859,-0.0873,-0.0797,-0.065,-0.0694,-0.0695,-0.0696,-0.0697,-0.0698,0,-0.0726,-0.0677,-0.0609,-0.0495,-0.0402,-0.0365,-0.0283,-0.0167,-0.002,0.021,0.039,0.0361,0.0255,-0.0023,-0.0335,-0.054,-0.0616,-0.0646,-0.0718,-0.0739,-0.0758,-0.0681,-0.0546,-0.0547,-0.0547,-0.0547,0,0,-0.071,-0.0641,-0.0598,-0.0435,-0.0334,-0.0209,-0.0138,0.004,0.0211,0.0525,0.0695,0.0884,0.044,0.0259,-0.0083,-0.0311,-0.0471,-0.0353,-0.0446,-0.0508,-0.0525,-0.0842,-0.0739,0,0,0,0,0]}],[{"header":{"parameterUnit":"m.s-1","parameterCategory":2,"la1":30.2991,"la2":30.254,"lo1":-89.0895,"lo2":-89.0444,"dy":0.0017,"dx":0.0017,"nx":28,"ny":28,"refTime":"2023-04-26T15:00:00:Z","depth":"4","parameterNumber":2,"parameterNumberName":"U-component_of_CURRENTS"},"data":[0,0,0,0,0,0,0,0,0,0,0,0,0,0,0,0,0,0,0,0,0,0,0,0,0,0,0,0,0,0,0,0,0,0,0,0,0,0,0,0,0,0,0,0,0,0,0,0,0,0,0,0,0,0,0,0,0,0,0.0624,0.0624,0,0.0764,0.0767,0.0769,0.0966,0.0968,0.0971,0.0973,0.1144,0.1147,0.1149,0,0,0,0,0,0,0,0,0,0,0,0,0,0.0565,0.0566,0.0624,0.0624,0.0625,0.0763,0.0767,0.077,0.0966,0.0968,0.0971,0.0974,0.1144,0.1147,0.115,0,0,0,0,0,0,0,0,0,0,0,0,0,0.0648,0.0566,0.0623,0.073,0.074,0.0763,0.0767,0.0771,0.0965,0.0968,0.0972,0.0975,0.1143,0.1146,0.115,0.1106,0,0,0.1161,0.1163,0,0,0,0,0,0,0,0,0.0643,0.0651,0.0714,0.0723,0.0734,0.084,0.0808,0.088,0.0964,0.0893,0.0973,0.0977,0.1035,0.1048,0.1084,0.1114,0.1122,0.1162,0.1164,0.1166,0.1167,0,0,0,0,0,0,0,0.0637,0.0646,0.0692,0.0714,0.0726,0.0784,0.08,0.0824,0.0954,0.0899,0.0911,0.0906,0.1043,0.108,0.1089,0.1124,0.1162,0.1165,0.1167,0.1169,0.1325,0.1326,0,0,0,0,0,0,0.0589,0.064,0.0687,0.0695,0.0682,0.0781,0.08,0.0813,0.0953,0.0974,0.0903,0.0914,0.1072,0.1085,0.1096,0.1209,0.1166,0.1169,0.1171,0.1323,0.1325,0.1327,0,0,0,0,0,0,0.0587,0.0592,0.0681,0.066,0.0674,0.0777,0.079,0.0813,0.0917,0.0953,0.0978,0.0988,0.1075,0.1091,0.1185,0.1211,0.1171,0.1174,0.1321,0.1323,0.1326,0.1333,0,0,0,0,0,0,0.0585,0.0591,0.0608,0.0657,0.0673,0.0723,0.0787,0.0813,0.0898,0.0917,0.1032,0.1048,0.1079,0.118,0.1189,0.1215,0.1177,0.1318,0.1322,0.1325,0.1331,0.1336,0.1341,0,0,0,0,0,0.0583,0.0594,0.0608,0.0614,0.0685,0.0722,0.0738,0.083,0.0899,0.094,0.1038,0.1048,0.1209,0.1184,0.1195,0.1223,0.1316,0.1321,0.1325,0.1329,0.1335,0.1341,0,0,0,0,0,0,0.0594,0.0615,0.0632,0.0655,0.0689,0.0751,0.0818,0.0855,0.0966,0.1026,0.1071,0.1093,0.1182,0.1204,0.1176,0.1281,0.1263,0.127,0.1263,0.1269,0.1274,0.1276,0.118,0,0,0,0,0,0.0587,0.0614,0.0627,0.0659,0.0691,0.0762,0.08,0.0854,0.0934,0.0994,0.1066,0.1148,0.1193,0.1238,0.1286,0.1339,0.1343,0.1366,0.1371,0.1375,0.1386,0.1394,0.14,0.1341,0.1341,0.1341,0,0,0.0609,0.0618,0.0641,0.0663,0.0733,0.0775,0.0804,0.089,0.0944,0.0987,0.1135,0.117,0.1212,0.1283,0.1324,0.1316,0.1399,0.138,0.1383,0.1393,0.1399,0.1404,0.1409,0.1344,0.1343,0.1343,0,0,0.0642,0.0681,0.0709,0.0731,0.0791,0.0835,0.0862,0.0948,0.1027,0.1112,0.1165,0.1224,0.1313,0.1342,0.1362,0.1421,0.1422,0.1442,0.1472,0.1479,0.1483,0.1486,0.1511,0.1517,0.1447,0.1447,0.1447,0,0.0659,0.0679,0.0726,0.0746,0.0784,0.0866,0.0911,0.0984,0.1088,0.1144,0.1174,0.1303,0.1335,0.139,0.1417,0.1429,0.1443,0.1438,0.1482,0.1485,0.1489,0.1513,0.1519,0.1448,0.1448,0.1447,0.1447,0,0.0691,0.0715,0.0754,0.0808,0.0865,0.092,0.0998,0.1092,0.1188,0.1231,0.1333,0.1371,0.1439,0.1447,0.1452,0.1495,0.15,0.1479,0.1456,0.1495,0.1519,0.1525,0.1449,0.1449,0.1448,0.1448,0,0,0.0688,0.0754,0.077,0.0801,0.0897,0.0951,0.1072,0.1168,0.1258,0.134,0.1422,0.1479,0.15,0.1524,0.1528,0.1533,0.1561,0.1523,0.1523,0.1531,0.1598,0.1456,0.1449,0.1544,0.1545,0.1546,0.1608,0,0.0696,0.0718,0.0777,0.0865,0.0892,0.1013,0.1111,0.1222,0.1324,0.1425,0.1465,0.1541,0.1528,0.1558,0.1562,0.157,0.1578,0.1548,0.1576,0.1577,0.1431,0.1451,0.1549,0.1612,0.1613,0.1614,0.1615,0,0.0684,0.0696,0.0758,0.0866,0.091,0.101,0.1203,0.1283,0.1426,0.15,0.1572,0.1606,0.1654,0.1618,0.1653,0.1639,0.1626,0.1616,0.1617,0.1485,0.1445,0.1567,0.1626,0.1625,0.1624,0.1624,0.1623,0,0.0609,0.069,0.0749,0.0779,0.0919,0.104,0.1155,0.1322,0.1409,0.1549,0.1616,0.1675,0.1726,0.1712,0.1695,0.1689,0.1707,0.1694,0.1556,0.1548,0.1654,0.1649,0.1699,0.1699,0.1699,0.1698,0.1698,0,0.0539,0.0582,0.0741,0.0758,0.0888,0.1022,0.1192,0.1304,0.1463,0.1507,0.1647,0.1647,0.1751,0.1763,0.1724,0.1654,0.1734,0.1566,0.1546,0.166,0.1655,0.1659,0.1653,0.1701,0.17,0.17,0.1699,0,0.0428,0.051,0.0572,0.0757,0.0844,0.0946,0.1202,0.1291,0.1464,0.1522,0.1563,0.1685,0.1682,0.1752,0.1743,0.1694,0.1631,0.1578,0.1717,0.1704,0.1473,0.1468,0.1462,0.1457,0.1453,0.145,0.1447,0,0.0367,0.0383,0.0565,0.0634,0.0746,0.0928,0.1044,0.126,0.1296,0.1451,0.1409,0.1529,0.1561,0.1513,0.1551,0.1545,0.1503,0.1524,0.1481,0.1464,0.1446,0.1447,0.1447,0.1441,0.144,0.1439,0.1438,0,0.0252,0.0343,0.0409,0.0523,0.0676,0.08,0.0944,0.0971,0.1132,0.1295,0.1268,0.1321,0.1338,0.1369,0.1424,0.1369,0.1544,0.1482,0.1491,0.145,0.1438,0.1425,0.143,0.1424,0.1426,0.1428,0.1428,0,0.0211,0.0224,0.0328,0.0446,0.0574,0.0636,0.0742,0.0809,0.0905,0.1056,0.0988,0.112,0.1241,0.1264,0.1229,0.1266,0.1247,0.1239,0.126,0.1276,0.1183,0.1138,0.1014,0,0,0,0,0,0.0171,0.0189,0.0249,0.0356,0.0456,0.0545,0.0652,0.0736,0.085,0.08,0.0923,0.0905,0.0983,0.1026,0.1027,0.1108,0.123,0.1101,0.1224,0.1348,0.1364,0.1271,0,0,0,0,0,0,0.0148,0.0192,0.0209,0.0263,0.032,0.0422,0.0493,0.0569,0.0538,0.0664,0.0703,0.0847,0.0917,0.0982,0.101,0.1028,0.1086,0.1188,0.1186,0.1339,0.1353,0.1366,0.1276,0,0,0,0,0]},{"header":{"parameterUnit":"m.s-1","parameterCategory":2,"la1":30.2991,"la2":30.254,"lo1":-89.0895,"lo2":-89.0444,"dy":0.0017,"dx":0.0017,"nx":28,"ny":28,"refTime":"2023-04-26T15:00:00:Z","depth":"4","parameterNumber":3,"parameterNumberName":"V-component_of_CURRENTS"},"data":[0,0,0,0,0,0,0,0,0,0,0,0,0,0,0,0,0,0,0,0,0,0,0,0,0,0,0,0,0,0,0,0,0,0,0,0,0,0,0,0,0,0,0,0,0,0,0,0,0,0,0,0,0,0,0,0,0,0,0.0303,0.0304,0,0.0319,0.0319,0.0319,0.02,0.0197,0.0194,0.0192,-0.0008,-0.0011,-0.0013,0,0,0,0,0,0,0,0,0,0,0,0,0,0.0201,0.0203,0.0303,0.0304,0.0304,0.0319,0.0319,0.0319,0.0201,0.0197,0.0194,0.019,-0.0007,-0.001,-0.0013,0,0,0,0,0,0,0,0,0,0,0,0,0,0.023,0.0204,0.0303,0.025,0.0246,0.0319,0.0319,0.0319,0.0202,0.0197,0.0193,0.0188,-0.0006,-0.001,-0.0014,0.0052,0,0,-0.0025,-0.0027,0,0,0,0,0,0,0,0,0.0229,0.0234,0.0257,0.0254,0.0249,0.0256,0.021,0.022,0.0203,0.0214,0.0191,0.0186,0.0066,0.0056,0.0067,0.0042,0.0034,-0.0026,-0.0028,-0.003,-0.0031,0,0,0,0,0,0,0,0.0227,0.0233,0.0305,0.0258,0.0253,0.0236,0.0235,0.0212,0.0158,0.0213,0.0205,0.0215,0.0061,0.0071,0.006,0.0031,-0.0026,-0.0029,-0.0031,-0.0033,-0.0163,-0.0164,0,0,0,0,0,0,0.0237,0.0231,0.0305,0.0306,0.0232,0.0242,0.024,0.0255,0.0163,0.0147,0.0219,0.0209,0.008,0.0065,0.0053,-0.0061,-0.003,-0.0033,-0.0035,-0.0162,-0.0163,-0.0165,0,0,0,0,0,0,0.0235,0.0244,0.0304,0.0271,0.0278,0.0249,0.0267,0.0258,0.0236,0.017,0.0148,0.0202,0.0076,0.0058,-0.0005,-0.0064,-0.0035,-0.0038,-0.0161,-0.0162,-0.0164,-0.0171,0,0,0,0,0,0,0.0232,0.0243,0.0254,0.0273,0.028,0.0318,0.0271,0.0262,0.0253,0.024,0.015,0.0129,0.0071,0.0002,-0.0008,-0.0069,-0.0041,-0.0159,-0.0161,-0.0164,-0.0169,-0.0173,-0.0176,0,0,0,0,0,0.0229,0.026,0.0254,0.0263,0.0297,0.0319,0.032,0.0281,0.0256,0.0246,0.0181,0.013,-0.0022,-0.0001,-0.0013,-0.0076,-0.0158,-0.0161,-0.0163,-0.0168,-0.0172,-0.0176,0,0,0,0,0,0,0.0199,0.0253,0.0245,0.0284,0.0288,0.0298,0.031,0.0287,0.024,0.0216,0.0142,0.0117,0.0031,-0.0001,0.0024,-0.012,-0.0108,-0.0113,-0.0107,-0.0112,-0.0115,-0.0093,-0.0045,0,0,0,0,0,0.0211,0.0255,0.0277,0.0303,0.032,0.0318,0.0323,0.0294,0.0265,0.024,0.0168,0.0092,0.0025,-0.0026,-0.0083,-0.0134,-0.0134,-0.019,-0.0193,-0.0196,-0.0186,-0.0215,-0.0219,-0.0173,-0.0173,-0.0173,0,0,0.0203,0.0243,0.026,0.0302,0.0316,0.0336,0.0307,0.0316,0.0294,0.0228,0.0161,0.0089,0.0014,-0.007,-0.0113,-0.0115,-0.0209,-0.0199,-0.0201,-0.019,-0.0218,-0.0222,-0.0226,-0.0175,-0.0175,-0.0174,0,0,0.023,0.0255,0.0305,0.0318,0.0345,0.0345,0.0345,0.0335,0.0289,0.0232,0.0167,0.0076,-0.0027,-0.0096,-0.0141,-0.018,-0.0215,-0.0228,-0.0241,-0.0269,-0.0273,-0.0276,-0.0273,-0.0275,-0.0242,-0.0242,-0.0242,0,0.0213,0.0283,0.0313,0.0357,0.0371,0.035,0.0377,0.0346,0.0291,0.0257,0.0192,0.0039,-0.0039,-0.0118,-0.017,-0.019,-0.0201,-0.0221,-0.0272,-0.0275,-0.0278,-0.0274,-0.0277,-0.0243,-0.0243,-0.0242,-0.0242,0,0.0281,0.032,0.0353,0.0406,0.0415,0.0436,0.0411,0.0375,0.0307,0.0256,0.0143,0.0035,-0.0064,-0.0124,-0.0176,-0.025,-0.0247,-0.0261,-0.0256,-0.0282,-0.0277,-0.028,-0.0244,-0.0243,-0.0243,-0.0243,0,0,0.0287,0.0384,0.0391,0.0424,0.0442,0.0462,0.043,0.0405,0.038,0.0252,0.02,0.0032,-0.0045,-0.0098,-0.0181,-0.0237,-0.0291,-0.0278,-0.0279,-0.0263,-0.0339,-0.0332,-0.0334,-0.0324,-0.0324,-0.0325,-0.0322,0,0.0327,0.0419,0.0452,0.0503,0.0544,0.0521,0.0498,0.0452,0.0374,0.0308,0.0174,0.0075,-0.0028,-0.0106,-0.0175,-0.0259,-0.0301,-0.0288,-0.0325,-0.0325,-0.0307,-0.0338,-0.0328,-0.0325,-0.0325,-0.0326,-0.0326,0,0.0396,0.0442,0.0519,0.0564,0.0581,0.0593,0.0573,0.0537,0.0443,0.0367,0.0249,0.0147,0.0019,-0.006,-0.0203,-0.0197,-0.0272,-0.0329,-0.033,-0.0321,-0.0324,-0.0297,-0.0331,-0.0331,-0.033,-0.033,-0.033,0,0.0417,0.0496,0.0565,0.0581,0.0617,0.0628,0.0612,0.0545,0.0528,0.0395,0.0358,0.02,0.0114,-0.0011,-0.0173,-0.0199,-0.0289,-0.0325,-0.0369,-0.0367,-0.0367,-0.0364,-0.0395,-0.0395,-0.0395,-0.0395,-0.0395,0,0.0459,0.0513,0.0583,0.0615,0.066,0.0654,0.0675,0.0616,0.0568,0.0539,0.0381,0.0317,0.0114,0.0024,-0.0121,-0.0249,-0.0248,-0.0365,-0.0374,-0.037,-0.0367,-0.0368,-0.0365,-0.0395,-0.0395,-0.0395,-0.0395,0,0.0475,0.0537,0.061,0.0659,0.0688,0.0694,0.0736,0.0748,0.0666,0.0629,0.0582,0.0423,0.0255,0.011,-0.0077,-0.0167,-0.0296,-0.0331,-0.0282,-0.0287,-0.0364,-0.0361,-0.0386,-0.0386,-0.0386,-0.0386,-0.0386,0,0.0494,0.0543,0.0639,0.0682,0.0713,0.075,0.0797,0.0778,0.0763,0.0672,0.0642,0.0503,0.0369,0.0153,-0.0033,-0.0237,-0.0282,-0.0311,-0.0389,-0.0361,-0.0366,-0.0364,-0.0362,-0.0386,-0.0386,-0.0386,-0.0386,0,0.0493,0.0544,0.0595,0.0677,0.0757,0.0847,0.0869,0.0864,0.0813,0.0816,0.0668,0.0517,0.0363,0.0137,0.0007,-0.016,-0.0283,-0.0312,-0.0314,-0.0388,-0.0361,-0.0366,-0.0364,-0.0385,-0.0386,-0.0386,-0.0386,0,0.0484,0.0504,0.0582,0.0654,0.0768,0.0841,0.0872,0.0858,0.086,0.0739,0.0699,0.0508,0.0413,0.0178,0.0035,-0.0104,-0.0171,-0.0218,-0.0227,-0.0229,-0.0205,-0.0149,-0.0113,0,0,0,0,0,0.045,0.0484,0.0549,0.062,0.0738,0.0811,0.0887,0.0902,0.0872,0.0788,0.0732,0.0565,0.032,0.02,0.0057,0.0007,-0.0201,-0.0164,-0.026,-0.0384,-0.0384,-0.0386,0,0,0,0,0,0,0.0433,0.0488,0.0525,0.0597,0.0643,0.0774,0.0828,0.0826,0.074,0.0692,0.0557,0.0536,0.029,0.0397,0.0051,0.0008,-0.007,-0.0264,-0.0266,-0.0384,-0.0384,-0.0384,-0.0386,0,0,0,0,0]}]]